ELY213 OMDB-OOMS

Flight info

Callsign ELY213
Flight time 0h 47m
Altitude 25000
Route ANVIX L223 TARDI N629 MUSUK T511 MCT
Aircraft B739/M-SDE2E3FGHIRWXY/LB1

Departure

Time 2026-05-05 15:50
Airport Dubai International Airport (OMDB)

Arrival

Time 2026-05-05 16:38
Airport Muscat International Airport (OOMS)
Time Latitude Longitude Altitude Speed Heading
2026-05-05 15:31 25.25794 55.34623 25 ft 0 kts 214°
2026-05-05 15:38 25.25801 55.34629 27 ft 3 kts 212°
2026-05-05 15:39 25.25818 55.34639 27 ft 3 kts 204°
2026-05-05 15:39 25.25837 55.34647 29 ft 3 kts 192°
2026-05-05 15:39 25.25857 55.34650 26 ft 3 kts 179°
2026-05-05 15:39 25.25876 55.34648 26 ft 3 kts 163°
2026-05-05 15:40 25.25895 55.34639 25 ft 3 kts 145°
2026-05-05 15:40 25.25910 55.34625 28 ft 3 kts 127°
2026-05-05 15:40 25.25916 55.34615 26 ft 1 kts 119°
2026-05-05 15:43 25.25912 55.34622 28 ft 4 kts 118°
2026-05-05 15:43 25.25889 55.34668 26 ft 11 kts 120°
2026-05-05 15:44 25.25845 55.34746 22 ft 20 kts 123°
2026-05-05 15:44 25.25760 55.34898 21 ft 25 kts 123°
2026-05-05 15:44 25.25673 55.35061 19 ft 20 kts 119°
2026-05-05 15:44 25.25700 55.35172 17 ft 17 kts 31°
2026-05-05 15:45 25.25807 55.35246 14 ft 18 kts 32°
2026-05-05 15:45 25.25914 55.35320 18 ft 18 kts 32°
2026-05-05 15:45 25.25990 55.35458 17 ft 31 kts 85°
2026-05-05 15:45 25.25910 55.35676 17 ft 33 kts 122°
2026-05-05 15:46 25.25785 55.35905 17 ft 36 kts 120°
2026-05-05 15:46 25.25648 55.36142 22 ft 36 kts 121°
2026-05-05 15:46 25.25518 55.36380 22 ft 37 kts 123°
2026-05-05 15:46 25.25387 55.36613 20 ft 35 kts 122°
2026-05-05 15:47 25.25260 55.36838 27 ft 33 kts 120°
2026-05-05 15:47 25.25183 55.36982 27 ft 32 kts 121°
2026-05-05 15:47 25.25042 55.37234 33 ft 28 kts 120°
2026-05-05 15:47 25.24942 55.37417 38 ft 28 kts 122°
2026-05-05 15:48 25.24836 55.37605 37 ft 31 kts 121°
2026-05-05 15:48 25.24736 55.37787 38 ft 29 kts 121°
2026-05-05 15:48 25.24678 55.37948 39 ft 19 kts 66°
2026-05-05 15:48 25.24708 55.37979 36 ft 5 kts 31°
2026-05-05 15:49 25.24790 55.38016 39 ft 17 kts 358°
2026-05-05 15:49 25.24847 55.37971 39 ft 20 kts 302°
2026-05-05 15:49 25.25053 55.37588 40 ft 95 kts 301°
2026-05-05 15:49 25.25505 55.36767 31 ft 154 kts 301°
2026-05-05 15:50 25.26110 55.35690 409 ft 173 kts 303°
2026-05-05 15:50 25.26783 55.34506 884 ft 190 kts 304°
2026-05-05 15:50 25.27489 55.33231 1499 ft 199 kts 303°
2026-05-05 15:50 25.28200 55.31894 2001 ft 199 kts 303°
2026-05-05 15:51 25.28908 55.30586 2392 ft 199 kts 304°
2026-05-05 15:51 25.29352 55.29140 2817 ft 206 kts 265°
2026-05-05 15:51 25.28872 55.27690 3339 ft 200 kts 241°
2026-05-05 15:51 25.28243 55.26317 3796 ft 201 kts 245°
2026-05-05 15:52 25.27658 55.24967 4257 ft 201 kts 244°
2026-05-05 15:52 25.27082 55.23624 4711 ft 199 kts 244°
2026-05-05 15:52 25.26475 55.22204 5193 ft 197 kts 244°
2026-05-05 15:52 25.25902 55.20863 5642 ft 195 kts 244°
2026-05-05 15:53 25.25332 55.19524 6114 ft 192 kts 244°
2026-05-05 15:53 25.24775 55.18216 6550 ft 188 kts 244°
2026-05-05 15:53 25.24055 55.17023 6854 ft 193 kts 216°
2026-05-05 15:53 25.22758 55.16607 6963 ft 203 kts 175°
2026-05-05 15:54 25.21304 55.16746 7097 ft 218 kts 175°
2026-05-05 15:54 25.19738 55.16903 7232 ft 232 kts 168°
2026-05-05 15:54 25.18311 55.17728 7459 ft 237 kts 133°
2026-05-05 15:54 25.17397 55.19234 7820 ft 238 kts 118°
2026-05-05 15:55 25.16634 55.20861 8067 ft 246 kts 117°
2026-05-05 15:55 25.15843 55.22569 8155 ft 262 kts 117°
2026-05-05 15:55 25.14969 55.24426 8275 ft 277 kts 118°
2026-05-05 15:55 25.14050 55.26355 8399 ft 290 kts 118°
2026-05-05 15:56 25.13109 55.28322 8753 ft 291 kts 118°
2026-05-05 15:56 25.12152 55.30315 9137 ft 294 kts 118°
2026-05-05 15:56 25.11181 55.32332 9518 ft 302 kts 118°
2026-05-05 15:56 25.10220 55.34423 9931 ft 309 kts 115°
2026-05-05 15:57 25.09326 55.36601 10335 ft 315 kts 114°
2026-05-05 15:57 25.08421 55.38841 10749 ft 322 kts 114°
2026-05-05 15:57 25.07496 55.41113 11164 ft 328 kts 114°
2026-05-05 15:57 25.06574 55.43433 11580 ft 334 kts 113°
2026-05-05 15:58 25.05661 55.45819 12007 ft 339 kts 113°
2026-05-05 15:58 25.04737 55.48245 12433 ft 345 kts 113°
2026-05-05 15:58 25.03796 55.50701 12868 ft 349 kts 113°
2026-05-05 15:58 25.02851 55.53154 13295 ft 354 kts 113°
2026-05-05 15:59 25.01874 55.55658 13715 ft 358 kts 115°
2026-05-05 15:59 25.00688 55.58086 14090 ft 362 kts 121°
2026-05-05 15:59 24.99340 55.60491 14509 ft 365 kts 122°
2026-05-05 15:59 24.97997 55.62852 14752 ft 374 kts 122°
2026-05-05 16:00 24.96613 55.65344 14774 ft 385 kts 121°
2026-05-05 16:00 24.95231 55.67884 14784 ft 388 kts 121°
2026-05-05 16:00 24.93814 55.70472 14795 ft 401 kts 123°
2026-05-05 16:00 24.92205 55.73036 14798 ft 413 kts 126°
2026-05-05 16:01 24.90458 55.75609 14795 ft 424 kts 127°
2026-05-05 16:01 24.88659 55.78228 14795 ft 431 kts 127°
2026-05-05 16:01 24.86863 55.80888 14787 ft 432 kts 126°
2026-05-05 16:01 24.85091 55.83548 14778 ft 430 kts 126°
2026-05-05 16:02 24.83325 55.86209 14786 ft 429 kts 126°
2026-05-05 16:02 24.81572 55.88814 14795 ft 429 kts 127°
2026-05-05 16:02 24.79787 55.91454 14798 ft 429 kts 127°
2026-05-05 16:02 24.77990 55.94071 14796 ft 429 kts 129°
2026-05-05 16:03 24.75929 55.96442 14807 ft 429 kts 137°
2026-05-05 16:03 24.73689 55.98625 14817 ft 431 kts 139°
2026-05-05 16:03 24.71441 56.00810 14812 ft 432 kts 138°
2026-05-05 16:03 24.69220 56.03046 14812 ft 432 kts 137°
2026-05-05 16:04 24.67024 56.05303 14814 ft 432 kts 137°
2026-05-05 16:04 24.65570 56.06799 14820 ft 432 kts 137°
2026-05-05 16:04 24.63372 56.09055 14825 ft 432 kts 137°
2026-05-05 16:04 24.61169 56.11310 14829 ft 432 kts 137°
2026-05-05 16:05 24.58969 56.13565 14837 ft 432 kts 137°
2026-05-05 16:05 24.56786 56.15833 14834 ft 432 kts 135°
2026-05-05 16:05 24.54729 56.18250 14840 ft 431 kts 131°
2026-05-05 16:05 24.52780 56.20760 14833 ft 431 kts 130°
2026-05-05 16:06 24.50866 56.23292 14837 ft 432 kts 129°
2026-05-05 16:06 24.48941 56.25830 14835 ft 431 kts 130°
2026-05-05 16:06 24.47013 56.28340 14821 ft 430 kts 130°
2026-05-05 16:06 24.45068 56.30842 14826 ft 431 kts 130°
2026-05-05 16:07 24.43110 56.33341 14821 ft 432 kts 130°
2026-05-05 16:07 24.41148 56.35833 14810 ft 431 kts 130°
2026-05-05 16:07 24.39182 56.38328 14803 ft 432 kts 130°
2026-05-05 16:07 24.37217 56.40821 14802 ft 431 kts 131°
2026-05-05 16:08 24.35262 56.43300 14789 ft 429 kts 131°
2026-05-05 16:08 24.33307 56.45780 14792 ft 429 kts 130°
2026-05-05 16:08 24.31371 56.48234 14791 ft 429 kts 130°
2026-05-05 16:08 24.29435 56.50716 14787 ft 430 kts 129°
2026-05-05 16:09 24.27610 56.53313 14786 ft 430 kts 126°
2026-05-05 16:09 24.25859 56.55976 14794 ft 430 kts 125°
2026-05-05 16:09 24.24136 56.58648 14790 ft 429 kts 125°
2026-05-05 16:09 24.22402 56.61329 14794 ft 431 kts 125°
2026-05-05 16:10 24.20685 56.63960 14789 ft 430 kts 125°
2026-05-05 16:10 24.18914 56.66649 14794 ft 430 kts 126°
2026-05-05 16:10 24.17156 56.69301 14804 ft 431 kts 126°
2026-05-05 16:10 24.15390 56.71956 14808 ft 431 kts 126°
2026-05-05 16:11 24.13629 56.74600 14804 ft 429 kts 126°
2026-05-05 16:11 24.08341 56.82539 14821 ft 430 kts 126°
2026-05-05 16:12 24.06558 56.85213 14830 ft 432 kts 126°
2026-05-05 16:12 24.03012 56.90523 14075 ft 424 kts 126°
2026-05-05 16:13 23.97855 56.98192 12550 ft 416 kts 127°
2026-05-05 16:13 23.96152 57.00722 11977 ft 410 kts 127°
2026-05-05 16:13 23.94472 57.03218 11428 ft 406 kts 127°
2026-05-05 16:14 23.91143 57.08164 10346 ft 399 kts 127°
2026-05-05 16:14 23.87876 57.13013 9265 ft 393 kts 127°
2026-05-05 16:15 23.84677 57.17771 8156 ft 387 kts 127°
2026-05-05 16:15 23.82570 57.20905 7424 ft 380 kts 127°
2026-05-05 16:16 23.78435 57.27049 6025 ft 375 kts 127°
2026-05-05 16:16 23.75361 57.31610 5112 ft 370 kts 127°
2026-05-05 16:17 23.72423 57.36225 5063 ft 369 kts 115°
2026-05-05 16:17 23.71725 57.38923 5081 ft 371 kts 100°
2026-05-05 16:18 23.70949 57.44512 5066 ft 372 kts 99°
2026-05-05 16:18 23.70572 57.47310 5075 ft 373 kts 99°
2026-05-05 16:18 23.69811 57.52870 5074 ft 373 kts 99°
2026-05-05 16:19 23.69429 57.55673 5051 ft 373 kts 99°
2026-05-05 16:19 23.69051 57.58470 5057 ft 373 kts 99°
2026-05-05 16:19 23.68291 57.64073 5080 ft 373 kts 99°
2026-05-05 16:20 23.67663 57.68727 5070 ft 373 kts 99°
2026-05-05 16:20 23.66786 57.75277 5094 ft 373 kts 99°
2026-05-05 16:21 23.66028 57.80883 5108 ft 374 kts 98°
2026-05-05 16:22 23.64431 57.89155 4824 ft 375 kts 121°
2026-05-05 16:22 23.62512 57.94288 4182 ft 363 kts 94°
2026-05-05 16:23 23.62508 57.99503 3561 ft 325 kts 92°
2026-05-05 16:23 23.62438 58.01887 3445 ft 305 kts 94°
2026-05-05 16:23 23.62197 58.06125 3409 ft 248 kts 96°
2026-05-05 16:24 23.62039 58.07882 3313 ft 220 kts 103°
2026-05-05 16:24 23.61777 58.09419 3188 ft 192 kts 102°
2026-05-05 16:24 23.61354 58.12078 2527 ft 163 kts 100°
2026-05-05 16:25 23.61161 58.13207 2150 ft 146 kts 115°
2026-05-05 16:25 23.60699 58.15387 1468 ft 156 kts 105°
2026-05-05 16:25 23.60601 58.16204 1511 ft 172 kts 96°
2026-05-05 16:26 23.60153 58.19401 1701 ft 185 kts 96°
2026-05-05 16:26 23.60373 58.21929 997 ft 159 kts 87°
2026-05-05 16:27 23.60379 58.22744 769 ft 157 kts 89°
2026-05-05 16:27 23.60457 58.24177 418 ft 149 kts 84°
2026-05-05 16:27 23.60567 58.25374 215 ft 160 kts 85°
2026-05-05 16:27 23.60672 58.26716 246 ft 181 kts 84°
2026-05-05 16:28 23.60776 58.28056 991 ft 176 kts 85°
2026-05-05 16:28 23.60944 58.29370 1671 ft 182 kts 70°
2026-05-05 16:28 23.61682 58.30614 2062 ft 215 kts 34°
2026-05-05 16:28 23.63074 58.31417 2282 ft 244 kts 15°
2026-05-05 16:29 23.64206 58.31446 2683 ft 247 kts 346°
2026-05-05 16:29 23.66343 58.30163 3089 ft 287 kts 327°
2026-05-05 16:29 23.68060 58.28921 2824 ft 303 kts 326°
2026-05-05 16:29 23.69659 58.27428 2579 ft 300 kts 304°
2026-05-05 16:30 23.70478 58.25467 2602 ft 281 kts 279°
2026-05-05 16:30 23.70608 58.23415 2621 ft 264 kts 269°
2026-05-05 16:30 23.70597 58.21452 2625 ft 256 kts 268°
2026-05-05 16:30 23.70570 58.19513 2624 ft 255 kts 268°
2026-05-05 16:31 23.70541 58.17572 2625 ft 256 kts 268°
2026-05-05 16:31 23.70511 58.15637 2636 ft 255 kts 268°
2026-05-05 16:31 23.70477 58.13699 2636 ft 255 kts 268°
2026-05-05 16:31 23.70323 58.11764 2625 ft 260 kts 251°
2026-05-05 16:32 23.69447 58.10135 2649 ft 252 kts 222°
2026-05-05 16:32 23.67944 58.09189 2636 ft 240 kts 191°
2026-05-05 16:32 23.66871 58.09076 2616 ft 230 kts 177°
2026-05-05 16:32 23.64864 58.09200 2597 ft 201 kts 175°
2026-05-05 16:33 23.63520 58.09305 2648 ft 194 kts 174°
2026-05-05 16:33 23.62182 58.09415 2624 ft 191 kts 175°
2026-05-05 16:33 23.60927 58.09696 2615 ft 176 kts 155°
2026-05-05 16:33 23.60051 58.10516 2350 ft 159 kts 119°
2026-05-05 16:34 23.59795 58.11594 2181 ft 141 kts 97°
2026-05-05 16:34 23.59716 58.12747 2015 ft 158 kts 94°
2026-05-05 16:34 23.59732 58.13927 1995 ft 156 kts 86°
2026-05-05 16:34 23.59841 58.15107 2051 ft 154 kts 86°
2026-05-05 16:35 23.59948 58.16251 2034 ft 155 kts 84°
2026-05-05 16:35 23.60099 58.17439 1949 ft 161 kts 80°
2026-05-05 16:35 23.60254 58.18225 2013 ft 156 kts 84°
2026-05-05 16:35 23.60317 58.19818 1745 ft 159 kts 101°
2026-05-05 16:36 23.60254 58.21019 1314 ft 154 kts 90°
2026-05-05 16:36 23.60308 58.22142 944 ft 145 kts 83°
2026-05-05 16:36 23.60395 58.23214 570 ft 139 kts 84°
2026-05-05 16:36 23.60467 58.24224 327 ft 135 kts 84°
2026-05-05 16:37 23.60557 58.25301 216 ft 145 kts 85°
2026-05-05 16:37 23.60643 58.26367 70 ft 152 kts 84°
2026-05-05 16:37 23.60727 58.27405 31 ft 126 kts 86°
2026-05-05 16:37 23.60773 58.27991 28 ft 60 kts 85°
2026-05-05 16:38 23.60751 58.28363 30 ft 46 kts 109°
2026-05-05 16:38 23.60690 58.28517 29 ft 17 kts 115°
2026-05-05 16:38 23.60654 58.28600 29 ft 20 kts 115°
2026-05-05 16:38 23.60579 58.28657 29 ft 5 kts 200°